User: anonymous   Login
Location: Unspecified
(0.0000°N, 0.0000°E)
Time: 00:25:45
(UTC+01:00)
Language:

NOAA 12 - Orbit

View from above orbital plane
View from above orbital plane
View from above satellite
View from above satellite

Ground track
Ground track

The orbit data is extracted from the following two-line orbital elements,

1 21263U 91032A   14353.58139575  .00000164  00000-0  87284-4 0  5448
2 21263 098.6471 018.1289 0014522 061.3470 090.5842 14.25714861226978
Epoch (UTC): 19 December 2014 13:57:12
Eccentricity: 0.0014522
inclination: 98.6471°
perigee height: 795 km
apogee height: 816 km
right ascension of ascending node: 18.1289°
argument of perigee: 61.3470°
revolutions per day: 14.25714861
mean anomaly at epoch: 90.5842°
orbit number at epoch: 22697

The dashed part of the orbit path shows where the satellite is in the earth's shadow,  

DLR